Location: Chantarel
(45.1638°N, 1.7873°E)
Time: 14:20:52
(UTC+00:00)

SL-8 Rocket - Pass Details

Date: 03 March 2021
Orbit: 957 x 991 km, 82.9° (Epoch: 11 April)

Event Time Altitude Azimuth Distance (km) Brightness Sun altitude
Rises 19:50:08 0° 193° (SSW) 3,669 7.0 -23.0°
Reaches altitude 10° 19:52:39 10° 196° (SSW) 2,721 6.3 -23.5°
Maximum altitude 19:58:52 71° 280° (W) 1,029 4.2 -24.5°
Drops below altitude 10° 20:05:05 10° 4° (N) 2,715 6.5 -25.6°
Sets 20:07:36 0° 7° (N) 3,662 7.1 -26.0°
